N4FLB Weather Reports


time (UTC)temp
C
wind
direction
speed
KPH
gust
KPH
rain 1hr
cm
rain 24hr
cm
rain mn
cm
humidity
%
barometer
mb
20260505010005 21 0 0.0 0.0 0.00 0.00 0.00 58 1015.1
20260505005404 22 0 0.0 0.0 0.00 0.00 0.00 57 1015.0
20260505004504 22 165 0.0 1.6 0.00 0.00 0.00 56 1014.9
20260505003604 22 0 0.0 0.0 0.00 0.00 0.00 54 1014.9
20260505002725 23 164 0.0 1.6 0.00 0.00 0.00 51 1015.0
20260505001804 23 185 0.0 4.8 0.00 0.00 0.00 48 1014.9
20260505000904 24 191 0.0 4.8 0.00 0.00 0.00 48 1014.8
20260505000004 25 177 0.0 3.2 0.00 0.00 0.00 47 1014.8
20260504235404 25 172 1.6 6.4 0.00 0.00 0.00 46 1014.8
20260504234504 25 181 3.2 8.0 0.00 0.00 0.00 45 1015.0
20260504233604 25 183 3.2 8.0 0.00 0.00 0.00 44 1014.9
20260504232704 25 184 3.2 9.7 0.00 0.00 0.00 45 1015.0
20260504231804 25 196 3.2 8.0 0.00 0.00 0.00 43 1015.0
20260504230904 26 198 3.2 11.3 0.00 0.00 0.00 42 1015.1
20260504230004 26 189 4.8 14.5 0.00 0.00 0.00 41 1015.1
20260504225404 26 190 4.8 14.5 0.00 0.00 0.00 40 1015.1
20260504224504 26 197 6.4 14.5 0.00 0.00 0.00 40 1015.2
20260504223625 26 197 4.8 11.3 0.00 0.00 0.00 42 1015.2
20260504222704 26 214 4.8 14.5 0.00 0.00 0.00 39 1015.3
20260504221804 26 210 4.8 14.5 0.00 0.00 0.00 41 1015.3
20260504220904 26 174 4.8 16.1 0.00 0.00 0.00 40 1015.3
20260504220004 26 186 4.8 11.3 0.00 0.00 0.00 41 1015.3
20260504215404 26 182 4.8 14.5 0.00 0.00 0.00 41 1015.3
20260504214504 26 171 4.8 11.3 0.00 0.00 0.00 41 1015.2
20260504213604 26 198 3.2 9.7 0.00 0.00 0.00 40 1015.4
20260504212704 26 184 6.4 12.9 0.00 0.00 0.00 39 1015.3
20260504211804 26 183 6.4 12.9 0.00 0.00 0.00 38 1015.4
20260504210925 26 170 6.4 17.7 0.00 0.00 0.00 40 1015.4
20260504210004 26 173 4.8 16.1 0.00 0.00 0.00 41 1015.6
20260504205404 26 225 4.8 16.1 0.00 0.00 0.00 39 1015.7
20260504204504 26 191 6.4 16.1 0.00 0.00 0.00 39 1015.7
20260504203625 26 178 6.4 16.1 0.00 0.00 0.00 38 1015.8
20260504202704 26 167 6.4 14.5 0.00 0.00 0.00 42 1015.8
20260504201803 26 201 4.8 14.5 0.00 0.00 0.00 40 1016.1
20260504200903 26 192 4.8 16.1 0.00 0.00 0.00 39 1016.2
20260504200004 26 178 6.4 19.3 0.00 0.00 0.00 41 1016.4
20260504195403 26 191 6.4 19.3 0.00 0.00 0.00 41 1016.5
20260504194503 25 164 6.4 14.5 0.00 0.00 0.00 38 1016.5
20260504193624 25 211 4.8 11.3 0.00 0.00 0.00 41 1016.7
20260504192703 25 156 6.4 17.7 0.00 0.00 0.00 41 1016.7
20260504191803 25 151 6.4 16.1 0.00 0.00 0.00 40 1016.8
20260504190903 25 148 4.8 11.3 0.00 0.00 0.00 42 1017.0
20260504190003 25 162 4.8 16.1 0.00 0.00 0.00 45 1017.1
20260504185403 25 144 4.8 16.1 0.00 0.00 0.00 43 1017.2
20260504184505 25 150 4.8 12.9 0.00 0.00 0.00 43 1017.2
20260504183605 25 173 4.8 12.9 0.00 0.00 0.00 46 1017.3
20260504182726 25 161 4.8 14.5 0.00 0.00 0.00 47 1017.5
20260504181805 24 138 6.4 14.5 0.00 0.00 0.00 47 1017.7
20260504180926 24 163 3.2 12.9 0.00 0.00 0.00 45 1017.8
20260504180005 24 162 4.8 12.9 0.00 0.00 0.00 46 1017.9
20260504175405 24 151 4.8 11.3 0.00 0.00 0.00 46 1018.0
20260504174505 24 145 6.4 14.5 0.00 0.00 0.00 48 1018.0
20260504173605 24 181 4.8 14.5 0.00 0.00 0.00 47 1018.0
20260504172726 23 153 6.4 16.1 0.00 0.00 0.00 46 1018.2
20260504171826 23 164 6.4 12.9 0.00 0.00 0.00 49 1018.2
20260504170904 23 166 6.4 16.1 0.00 0.00 0.00 50 1018.1
20260504150904 20 172 6.4 12.9 0.00 0.00 0.00 69 1019.3
20260504140925 17 142 3.2 8.0 0.00 0.00 0.00 73 1019.7
20260504081805 9 0 0.0 0.0 0.00 0.00 0.00 97 1019.0
20260504080904 9 0 0.0 0.0 0.00 0.00 0.00 97 1019.1
20260504045404 11 67 0.0 1.6 0.00 0.00 0.00 96 1020.0
20260504044504 11 0 0.0 0.0 0.00 0.00 0.00 95 1020.2
20260504043604 11 57 0.0 4.8 0.00 0.00 0.00 95 1020.2
20260504042704 11 264 1.6 6.4 0.00 0.00 0.00 94 1020.4
20260504041804 12 272 1.6 6.4 0.00 0.00 0.00 95 1020.4
20260504040904 12 0 0.0 0.0 0.00 0.00 0.00 94 1020.4
20260504040004 12 0 0.0 0.0 0.00 0.00 0.00 94 1020.3
20260504035404 12 41 0.0 1.6 0.00 0.00 0.00 93 1020.3
20260504034525 12 0 0.0 0.0 0.00 0.00 0.00 93 1020.5
20260504033603 12 0 0.0 0.0 0.00 0.00 0.00 92 1020.5
20260504032704 12 0 0.0 0.0 0.00 0.00 0.00 90 1020.4
20260504031803 12 0 0.0 0.0 0.00 0.00 0.00 90 1020.3
20260504030903 13 41 0.0 3.2 0.00 0.00 0.00 89 1020.2
20260504030024 13 41 0.0 1.6 0.00 0.00 0.00 88 1020.4
20260504025403 13 41 0.0 1.6 0.00 0.00 0.00 87 1020.2
20260504024525 13 0 0.0 0.0 0.00 0.00 0.00 85 1020.1
20260504023603 13 0 0.0 0.0 0.00 0.00 0.00 83 1020.0
20260504022703 13 0 0.0 0.0 0.00 0.00 0.00 82 1020.0
20260504021803 13 41 0.0 1.6 0.00 0.00 0.00 80 1019.9
20260504020903 14 0 0.0 0.0 0.00 0.00 0.00 78 1019.9
20260504020003 14 41 0.0 1.6 0.00 0.00 0.00 76 1019.8
20260504015424 15 0 0.0 0.0 0.00 0.00 0.00 72 1019.6
20260504014503 15 0 0.0 0.0 0.00 0.00 0.00 70 1019.5
20260504013603 15 0 0.0 0.0 0.00 0.00 0.00 67 1019.4
20260504012703 15 0 0.0 0.0 0.00 0.00 0.00 65 1019.4
20260504011803 16 0 0.0 0.0 0.00 0.00 0.00 64 1019.4
20260504010903 16 0 0.0 0.0 0.00 0.00 0.00 63 1019.3